SCP
0 -0 -0 -0 -0 -0 0 0 0 0 0 0 0 0 0 0 0 0 0 -0 -0 -0 -0 -0 -0 -0 -0 -0 -0 -0 -0 -0 -0 -0 -0 -0 -0 -0 -0 -0 -0 -0 -0
-0 -0 -0 -0 -0 0 0 0 0 0 0 0 0 0 0 0 0 0 0 -0 -0 -0 -0 -0 -0 -0 -0 -0 -0 -0 -0 -0 -0 -0 -0 -0 -0 -0 -0 -0 -0 -0 -0
-0 -0 -0 -0 -0 -0 0 0 0 0 0 0 0 0 0 0 0 0 0 0 -0 -0 -0 -0 -0 -0 -0 -0 -0 -0 -0 -0 -0 -0 -0 -0 -0 -0 -0 -0 -0 -0 -0
-0 -0 0 -0 0 0 0 0 0 0 0 0 0 0 0 0 0 0 0 0 0 -0 -0 -0 -0 -0 -0 -0 -0 -0 -0 -0 -0 -0 -0 -0 -0 -0 -0 -0 -0 -0 -0
0 0 0 0 0 0 0 0 0 0 0 0 0 0 0 0 0 0 0 0 0 0 -0 0 0 -0 -0 -0 -0 -0 -0 -0 -0 -0 -0 -0 0 -0 -0 -0 -0 -0 -0
0 0 1 1 0 0 0 0 0 0 0 0 0 0 0 0 0 0 0 0 0 0 0 0 0 0 0 -0 -0 -0 -0 -0 -0 -0 -0 -0 -0 -0 -0 -0 -0 -0 -0
1 1 1 1 1 1 1 0 0 0 0 0 0 0 0 0 0 0 0 0 0 0 0 0 0 0 0 -0 -0 -0 -0 -0 -0 -0 -0 -0 -0 -0 -0 -0 -0 -0 -0
1 1 1 1 1 1 1 0 1 1 1 0 0 0 0 0 0 0 0 0 0 0 0 0 0 0 0 -0 -0 -0 -0 -0 -0 -0 -0 -0 -0 -0 -0 -0 -0 -0 -0
1 1 1 1 1 1 1 1 1 1 1 1 1 0 0 0 0 0 0 0 0 0 0 0 0 0 0 -0 -0 -0 -0 -0 0 0 -0 -0 -0 -0 -0 -0 -0 -0 -0
2 1 1 1 1 2 1 1 1 1 1 1 1 1 1 1 0 0 0 0 0 0 0 0 0 0 0 0 -0 -0 -0 -0 0 0 0 -0 -0 -0 -0 -0 -0 -0 -0
1 1 1 1 1 1 1 1 1 1 1 1 1 1 1 1 0 0 0 0 0 0 0 0 0 0 0 0 -0 -0 -0 0 0 0 0 -0 -0 -0 -0 -0 -0 -0 -0
1 1 1 1 1 1 1 1 1 1 1 1 1 0 0 0 0 0 0 0 0 0 0 0 0 0 0 0 0 0 0 0 0 0 0 -0 -0 -0 -0 -0 -0 -0 -0
0 0 1 1 1 1 1 1 0 1 1 1 0 0 0 0 0 0 0 0 0 0 0 0 0 0 0 0 0 0 0 0 0 0 0 -0 -0 -0 -0 -0 -0 -0 -0
0 0 1 1 1 1 1 1 1 1 1 0 0 0 0 0 0 0 0 0 0 0 0 0 0 0 0 0 0 0 0 0 0 0 0 -0 -0 -0 -0 -0 -0 -0 -0
0 0 1 1 1 1 2 1 1 1 1 1 0 0 0 0 0 0 0 0 0 0 0 0 0 0 0 0 0 0 0 0 0 0 0 -0 -0 -0 -0 -0 -0 -0 -0
0 0 0 1 1 2 2 1 1 1 1 1 1 0 0 0 0 0 0 0 0 0 0 0 0 0 0 0 0 0 0 0 0 0 0 0 0 -0 -0 -0 -0 -0 -0
0 0 0 0 0 1 1 2 1 1 1 1 0 0 0 0 0 0 0 0 0 0 0 0 0 0 0 0 0 0 0 0 0 0 0 0 0 0 0 0 -0 -0 -0
0 0 0 0 0 0 1 1 2 1 1 1 1 0 0 0 0 0 0 0 0 0 0 0 0 0 0 0 0 0 0 0 0 0 0 0 0 0 0 0 0 0 0
0 0 0 0 0 0 0 1 1 1 1 1 1 0 0 0 0 0 0 0 0 0 0 0 0 0 0 0 0 0 0 0 0 0 0 0 0 0 0 0 0 0 0
0 0 0 0 0 0 0 1 1 1 1 1 1 0 0 0 0 0 0 0 0 0 0 0 0 0 0 0 0 0 0 0 0 0 0 0 0 0 0 0 0 0 0
0 0 0 0 0 0 0 1 1 1 1 1 1 0 0 0 0 0 0 0 0 0 0 0 0 0 0 0 0 0 0 0 0 0 0 0 0 0 0 0 0 0 0
0 0 0 0 0 -0 0 0 0 1 1 1 1 0 0 0 0 0 0 0 0 0 0 0 0 0 0 0 0 0 0 0 0 0 0 0 0 0 0 0 0 0 0
0 0 0 0 -0 0 0 0 0 0 1 0 0 0 0 0 0 0 0 0 0 0 0 0 0 0 0 0 0 0 0 0 0 0 0 0 0 0 0 0 0 0 0
0 0 -0 -0 0 0 -0 0 0 0 0 0 0 0 0 0 0 0 0 0 0 0 0 0 0 0 0 0 0 0 0 0 0 0 0 0 0 0 0 0 0 0 0
0 0 0 -0 -0 0 0 0 0 0 0 0 0 0 0 0 0 0 0 0 0 0 0 0 0 0 0 0 0 0 0 0 0 0 0 0 0 0 0 0 0 0 0
0 0 0 0 -0 0 -0 0 0 0 0 0 0 0 0 0 0 0 0 0 0 0 0 0 0 0 0 0 0 0 0 0 0 0 0 0 0 0 0 0 0 0 0
Wind_Speed_500mb
20 19 26 27 28 27 24 25 22 18 14 11 14 20 21 17 18 22 23 21 25 26 29 33 33 39 41 45 48 47 47 47 50 50 51 50 52 56 58 58 62 65 65
16 17 32 28 28 26 24 22 20 18 14 10 16 23 20 21 18 20 20 22 25 27 32 34 35 41 43 44 44 41 39 44 46 51 52 52 48 52 57 59 59 62 65
23 18 31 29 27 27 26 22 17 14 13 13 19 25 20 24 22 19 21 23 27 30 30 31 35 41 43 42 39 37 36 33 37 45 49 53 51 50 54 55 56 59 62
23 20 29 29 26 26 25 22 17 17 17 16 18 23 25 22 22 23 22 25 27 27 27 29 33 38 40 37 37 36 31 29 42 49 54 53 52 52 55 57 58 58 59
25 19 20 26 28 26 25 23 20 20 19 17 16 21 30 23 21 24 25 23 25 25 24 23 27 35 40 36 34 32 31 35 41 47 55 53 51 53 55 57 57 57 56
26 19 12 26 26 25 25 23 22 20 20 15 14 14 28 25 20 22 21 23 20 19 17 22 30 38 39 35 31 30 31 31 37 42 46 47 49 47 50 55 59 58 55
26 20 14 21 25 24 23 23 22 19 17 15 13 12 19 28 21 20 19 19 20 19 19 26 37 42 38 35 32 29 32 34 33 39 42 44 43 45 44 51 54 56 59
19 22 21 13 23 26 27 24 23 25 22 18 14 12 18 26 24 19 18 19 22 21 23 33 39 40 42 37 39 39 34 31 36 35 35 36 40 42 42 47 50 52 54
27 23 24 21 24 26 28 28 27 26 26 23 17 12 22 25 24 21 21 22 22 24 29 33 39 44 41 41 36 29 24 18 29 34 36 47 48 48 49 50 48 47 48
5 19 24 25 28 28 31 31 30 28 29 29 22 17 23 26 25 22 24 22 24 27 34 38 40 45 41 34 26 24 19 14 30 46 46 44 44 44 48 52 54 54 52
19 12 20 22 25 25 30 31 32 33 31 33 28 23 18 31 24 22 21 22 24 27 29 35 40 46 44 33 14 8 11 21 46 47 45 42 43 46 47 46 51 53 51
12 14 24 18 19 22 29 32 37 36 40 37 36 34 30 32 28 19 20 22 24 27 31 33 41 43 36 22 15 9 12 15 46 45 42 39 43 45 47 47 48 48 49
13 20 17 31 32 27 34 34 38 39 48 47 49 45 37 29 26 25 21 24 29 27 34 40 44 43 39 18 20 10 12 20 45 44 40 41 44 45 46 46 47 47 49
15 21 22 23 30 40 38 37 36 41 49 53 48 50 41 39 30 22 25 28 27 30 35 45 46 37 40 19 18 17 8 9 43 43 40 42 43 44 46 47 48 49 51
25 23 27 24 26 31 36 42 40 36 42 45 30 45 50 43 21 25 33 37 32 33 43 42 37 44 41 22 27 13 9 16 39 45 43 42 42 44 45 46 46 48 48
23 20 26 30 32 33 34 39 39 36 33 41 40 47 41 30 25 27 44 42 47 42 47 40 41 48 38 42 34 23 10 20 35 44 44 42 43 42 42 42 42 42 42
35 34 28 21 29 27 30 35 33 30 35 34 45 47 39 38 12 40 27 44 50 49 41 42 39 52 42 39 30 28 20 18 29 38 41 42 40 39 38 37 36 36 35
35 39 49 36 19 31 31 35 35 32 35 28 38 36 43 42 29 26 19 36 21 47 61 44 61 50 51 45 46 32 23 24 28 29 32 34 35 35 33 29 28 28 27
24 29 32 47 42 20 30 31 38 35 28 33 31 32 37 50 42 38 35 22 37 46 51 51 52 57 57 49 40 34 29 29 28 30 28 27 26 26 25 22 21 21 22
47 47 49 45 53 46 28 32 36 39 35 32 33 33 35 43 60 55 50 31 44 55 61 57 58 55 60 56 51 40 35 31 26 24 23 24 21 21 21 19 16 16 17
29 20 22 30 35 41 38 34 39 39 42 37 37 37 37 39 42 55 59 45 56 62 49 61 63 57 55 59 61 53 45 29 24 20 11 15 17 18 16 14 11 12 12
22 21 19 23 33 35 41 35 36 34 32 33 40 41 39 37 42 50 58 56 64 58 64 62 72 67 57 59 64 58 44 37 32 22 17 11 16 13 13 11 4 2 5
14 19 20 17 16 38 47 41 36 33 35 34 35 35 40 34 43 47 49 62 71 75 68 70 71 69 63 55 57 46 40 30 45 32 23 16 16 17 15 11 10 7 6
8 10 7 13 16 33 43 39 38 39 35 37 34 37 31 29 40 52 55 67 78 85 73 69 72 69 64 64 58 45 24 43 48 38 31 25 21 22 23 22 20 15 12
7 5 6 13 22 25 31 39 42 42 41 42 35 31 29 22 28 47 66 83 95 89 73 71 70 62 58 64 56 46 16 25 50 44 52 42 37 32 32 30 26 21 21
8 7 14 19 21 22 29 34 34 30 30 34 33 34 32 27 42 36 85 99 91 85 70 66 58 57 56 52 51 35 18 39 41 36 38 50 49 42 37 31 26 28 28
Wind_Direction_500mb
189 197 182 174 166 158 156 153 151 148 143 121 122 130 133 128 123 117 112 112 105 104 99 98 98 100 95 91 85 75 70 68 69 73 74 75 72 68 67 65 66 66 67
217 202 180 177 171 166 166 163 161 166 163 147 132 123 134 129 126 121 120 117 111 109 106 101 99 104 98 94 89 84 83 74 74 73 74 75 73 71 68 67 67 68 69
215 193 181 175 175 172 171 171 165 168 170 148 144 134 135 131 131 129 121 122 118 114 110 97 100 104 104 98 94 93 86 69 78 75 74 71 74 74 72 70 70 71 70
207 192 188 174 177 175 174 172 170 158 150 144 143 144 128 138 135 132 121 119 121 119 112 100 102 110 110 105 98 89 85 88 86 81 78 75 75 77 74 72 70 72 71
210 196 194 188 180 177 176 174 168 159 150 139 136 143 147 141 141 136 131 126 119 117 114 100 107 120 114 107 105 103 102 98 93 85 78 75 74 79 77 75 74 73 73
205 209 211 203 189 184 178 177 172 168 153 141 138 142 158 152 152 147 138 131 125 123 114 107 118 123 126 117 110 98 89 99 93 87 85 79 75 77 83 81 78 76 75
204 215 231 209 202 194 186 183 178 171 178 160 147 148 162 158 162 160 150 139 129 126 116 119 126 127 127 120 113 100 95 97 95 91 86 82 81 78 88 87 82 80 77
220 234 227 226 220 210 196 190 192 185 193 179 164 152 161 165 167 167 157 148 136 132 121 125 131 127 118 113 111 107 95 94 96 94 87 84 82 82 89 96 92 87 83
196 217 219 215 221 222 215 204 206 199 198 191 180 162 151 154 164 168 170 155 147 141 133 133 131 123 116 113 111 95 81 66 110 89 88 85 84 82 83 87 91 95 91
156 209 216 219 227 228 223 221 211 210 204 196 186 170 158 167 169 170 167 160 154 146 141 138 135 127 115 109 113 94 75 70 111 96 90 87 87 86 83 83 86 87 86
223 207 222 220 222 231 233 226 224 217 211 200 186 169 164 172 172 169 169 167 164 158 147 145 143 135 122 116 116 117 57 82 104 99 96 94 92 89 86 85 85 84 85
239 232 247 243 233 240 246 236 228 223 216 201 189 176 165 169 166 176 180 178 174 166 153 147 148 135 121 134 132 129 60 95 104 103 102 102 96 93 91 88 86 85 84
276 263 245 249 255 254 256 239 232 230 221 202 196 185 176 167 168 184 189 187 180 172 160 150 145 137 130 151 145 119 78 112 110 104 107 104 100 96 94 92 89 87 85
254 269 263 241 248 253 252 245 241 230 234 211 205 195 193 172 191 192 199 187 190 171 158 145 144 139 136 168 166 144 104 92 118 110 108 105 102 99 97 94 92 90 87
270 270 269 279 272 254 251 249 244 232 231 211 220 222 196 167 188 280 243 191 184 181 162 153 145 144 137 164 158 165 130 130 127 118 112 110 107 103 100 98 95 92 90
271 265 256 270 275 271 253 247 244 232 230 219 210 201 199 218 215 233 219 209 183 175 168 168 159 143 147 164 163 162 143 126 136 125 119 116 112 108 105 102 99 97 92
252 257 270 280 277 272 260 254 246 230 221 221 213 198 193 180 163 196 239 235 204 181 167 177 175 162 164 175 170 155 144 124 139 132 130 128 123 117 112 107 103 97 92
248 254 251 253 252 274 280 246 239 233 218 211 219 206 189 183 186 203 231 226 245 193 165 185 159 161 166 168 155 151 142 131 137 136 132 134 130 124 118 112 103 99 93
250 248 243 245 247 252 265 262 226 218 221 212 220 217 208 208 211 221 223 211 200 192 180 180 170 174 163 152 147 141 138 135 131 132 133 133 128 125 118 110 104 93 87
289 282 254 245 247 253 226 258 220 216 212 213 223 230 223 217 222 228 227 214 208 196 178 182 178 175 171 152 142 143 142 138 138 139 138 132 126 131 120 105 97 91 84
293 289 271 266 256 251 225 225 219 211 200 205 223 235 230 230 231 227 226 219 206 192 178 186 180 172 164 167 154 139 136 142 147 153 169 153 140 144 135 118 100 91 81
297 274 269 268 268 250 213 215 222 205 207 214 218 228 235 240 238 235 224 214 202 174 172 171 169 168 169 172 164 154 142 157 172 177 182 199 185 161 156 141 154 47 52
338 300 257 255 262 202 202 209 202 201 211 221 227 232 240 235 238 234 220 202 190 182 177 177 175 171 172 176 181 169 148 160 163 172 186 194 184 162 170 184 211 271 287
342 349 267 223 194 189 198 192 200 197 204 215 232 239 232 228 227 224 219 200 186 186 182 180 180 178 183 177 185 181 174 183 173 176 190 191 188 189 197 204 222 234 248
15 42 132 178 196 192 205 188 193 201 218 231 233 236 234 224 213 215 219 199 185 181 182 181 181 183 185 187 189 184 191 201 191 185 180 183 191 197 208 219 237 236 241
50 92 133 157 164 181 190 195 201 212 234 234 228 222 225 216 216 219 206 195 191 182 179 183 182 189 186 194 189 193 182 170 196 190 188 190 196 197 213 227 233 230 241
Wind_Speed_850mb
20 19 26 27 28 27 24 25 22 18 14 11 14 20 21 17 18 22 23 21 25 26 29 33 33 39 41 45 48 47 47 47 50 50 51 50 52 56 58 58 62 65 65
16 17 32 28 28 26 24 22 20 18 14 10 16 23 20 21 18 20 20 22 25 27 32 34 35 41 43 44 44 41 39 44 46 51 52 52 48 52 57 59 59 62 65
23 18 31 29 27 27 26 22 17 14 13 13 19 25 20 24 22 19 21 23 27 30 30 31 35 41 43 42 39 37 36 33 37 45 49 53 51 50 54 55 56 59 62
23 20 29 29 26 26 25 22 17 17 17 16 18 23 25 22 22 23 22 25 27 27 27 29 33 38 40 37 37 36 31 29 42 49 54 53 52 52 55 57 58 58 59
25 19 20 26 28 26 25 23 20 20 19 17 16 21 30 23 21 24 25 23 25 25 24 23 27 35 40 36 34 32 31 35 41 47 55 53 51 53 55 57 57 57 56
26 19 12 26 26 25 25 23 22 20 20 15 14 14 28 25 20 22 21 23 20 19 17 22 30 38 39 35 31 30 31 31 37 42 46 47 49 47 50 55 59 58 55
26 20 14 21 25 24 23 23 22 19 17 15 13 12 19 28 21 20 19 19 20 19 19 26 37 42 38 35 32 29 32 34 33 39 42 44 43 45 44 51 54 56 59
19 22 21 13 23 26 27 24 23 25 22 18 14 12 18 26 24 19 18 19 22 21 23 33 39 40 42 37 39 39 34 31 36 35 35 36 40 42 42 47 50 52 54
27 23 24 21 24 26 28 28 27 26 26 23 17 12 22 25 24 21 21 22 22 24 29 33 39 44 41 41 36 29 24 18 29 34 36 47 48 48 49 50 48 47 48
5 19 24 25 28 28 31 31 30 28 29 29 22 17 23 26 25 22 24 22 24 27 34 38 40 45 41 34 26 24 19 14 30 46 46 44 44 44 48 52 54 54 52
19 12 20 22 25 25 30 31 32 33 31 33 28 23 18 31 24 22 21 22 24 27 29 35 40 46 44 33 14 8 11 21 46 47 45 42 43 46 47 46 51 53 51
12 14 24 18 19 22 29 32 37 36 40 37 36 34 30 32 28 19 20 22 24 27 31 33 41 43 36 22 15 9 12 15 46 45 42 39 43 45 47 47 48 48 49
13 20 17 31 32 27 34 34 38 39 48 47 49 45 37 29 26 25 21 24 29 27 34 40 44 43 39 18 20 10 12 20 45 44 40 41 44 45 46 46 47 47 49
15 21 22 23 30 40 38 37 36 41 49 53 48 50 41 39 30 22 25 28 27 30 35 45 46 37 40 19 18 17 8 9 43 43 40 42 43 44 46 47 48 49 51
25 23 27 24 26 31 36 42 40 36 42 45 30 45 50 43 21 25 33 37 32 33 43 42 37 44 41 22 27 13 9 16 39 45 43 42 42 44 45 46 46 48 48
23 20 26 30 32 33 34 39 39 36 33 41 40 47 41 30 25 27 44 42 47 42 47 40 41 48 38 42 34 23 10 20 35 44 44 42 43 42 42 42 42 42 42
35 34 28 21 29 27 30 35 33 30 35 34 45 47 39 38 12 40 27 44 50 49 41 42 39 52 42 39 30 28 20 18 29 38 41 42 40 39 38 37 36 36 35
35 39 49 36 19 31 31 35 35 32 35 28 38 36 43 42 29 26 19 36 21 47 61 44 61 50 51 45 46 32 23 24 28 29 32 34 35 35 33 29 28 28 27
24 29 32 47 42 20 30 31 38 35 28 33 31 32 37 50 42 38 35 22 37 46 51 51 52 57 57 49 40 34 29 29 28 30 28 27 26 26 25 22 21 21 22
47 47 49 45 53 46 28 32 36 39 35 32 33 33 35 43 60 55 50 31 44 55 61 57 58 55 60 56 51 40 35 31 26 24 23 24 21 21 21 19 16 16 17
29 20 22 30 35 41 38 34 39 39 42 37 37 37 37 39 42 55 59 45 56 62 49 61 63 57 55 59 61 53 45 29 24 20 11 15 17 18 16 14 11 12 12
22 21 19 23 33 35 41 35 36 34 32 33 40 41 39 37 42 50 58 56 64 58 64 62 72 67 57 59 64 58 44 37 32 22 17 11 16 13 13 11 4 2 5
14 19 20 17 16 38 47 41 36 33 35 34 35 35 40 34 43 47 49 62 71 75 68 70 71 69 63 55 57 46 40 30 45 32 23 16 16 17 15 11 10 7 6
8 10 7 13 16 33 43 39 38 39 35 37 34 37 31 29 40 52 55 67 78 85 73 69 72 69 64 64 58 45 24 43 48 38 31 25 21 22 23 22 20 15 12
7 5 6 13 22 25 31 39 42 42 41 42 35 31 29 22 28 47 66 83 95 89 73 71 70 62 58 64 56 46 16 25 50 44 52 42 37 32 32 30 26 21 21
8 7 14 19 21 22 29 34 34 30 30 34 33 34 32 27 42 36 85 99 91 85 70 66 58 57 56 52 51 35 18 39 41 36 38 50 49 42 37 31 26 28 28
Wind_Direction_850mb
189 197 182 174 166 158 156 153 151 148 143 121 122 130 133 128 123 117 112 112 105 104 99 98 98 100 95 91 85 75 70 68 69 73 74 75 72 68 67 65 66 66 67
217 202 180 177 171 166 166 163 161 166 163 147 132 123 134 129 126 121 120 117 111 109 106 101 99 104 98 94 89 84 83 74 74 73 74 75 73 71 68 67 67 68 69
215 193 181 175 175 172 171 171 165 168 170 148 144 134 135 131 131 129 121 122 118 114 110 97 100 104 104 98 94 93 86 69 78 75 74 71 74 74 72 70 70 71 70
207 192 188 174 177 175 174 172 170 158 150 144 143 144 128 138 135 132 121 119 121 119 112 100 102 110 110 105 98 89 85 88 86 81 78 75 75 77 74 72 70 72 71
210 196 194 188 180 177 176 174 168 159 150 139 136 143 147 141 141 136 131 126 119 117 114 100 107 120 114 107 105 103 102 98 93 85 78 75 74 79 77 75 74 73 73
205 209 211 203 189 184 178 177 172 168 153 141 138 142 158 152 152 147 138 131 125 123 114 107 118 123 126 117 110 98 89 99 93 87 85 79 75 77 83 81 78 76 75
204 215 231 209 202 194 186 183 178 171 178 160 147 148 162 158 162 160 150 139 129 126 116 119 126 127 127 120 113 100 95 97 95 91 86 82 81 78 88 87 82 80 77
220 234 227 226 220 210 196 190 192 185 193 179 164 152 161 165 167 167 157 148 136 132 121 125 131 127 118 113 111 107 95 94 96 94 87 84 82 82 89 96 92 87 83
196 217 219 215 221 222 215 204 206 199 198 191 180 162 151 154 164 168 170 155 147 141 133 133 131 123 116 113 111 95 81 66 110 89 88 85 84 82 83 87 91 95 91
156 209 216 219 227 228 223 221 211 210 204 196 186 170 158 167 169 170 167 160 154 146 141 138 135 127 115 109 113 94 75 70 111 96 90 87 87 86 83 83 86 87 86
223 207 222 220 222 231 233 226 224 217 211 200 186 169 164 172 172 169 169 167 164 158 147 145 143 135 122 116 116 117 57 82 104 99 96 94 92 89 86 85 85 84 85
239 232 247 243 233 240 246 236 228 223 216 201 189 176 165 169 166 176 180 178 174 166 153 147 148 135 121 134 132 129 60 95 104 103 102 102 96 93 91 88 86 85 84
276 263 245 249 255 254 256 239 232 230 221 202 196 185 176 167 168 184 189 187 180 172 160 150 145 137 130 151 145 119 78 112 110 104 107 104 100 96 94 92 89 87 85
254 269 263 241 248 253 252 245 241 230 234 211 205 195 193 172 191 192 199 187 190 171 158 145 144 139 136 168 166 144 104 92 118 110 108 105 102 99 97 94 92 90 87
270 270 269 279 272 254 251 249 244 232 231 211 220 222 196 167 188 280 243 191 184 181 162 153 145 144 137 164 158 165 130 130 127 118 112 110 107 103 100 98 95 92 90
271 265 256 270 275 271 253 247 244 232 230 219 210 201 199 218 215 233 219 209 183 175 168 168 159 143 147 164 163 162 143 126 136 125 119 116 112 108 105 102 99 97 92
252 257 270 280 277 272 260 254 246 230 221 221 213 198 193 180 163 196 239 235 204 181 167 177 175 162 164 175 170 155 144 124 139 132 130 128 123 117 112 107 103 97 92
248 254 251 253 252 274 280 246 239 233 218 211 219 206 189 183 186 203 231 226 245 193 165 185 159 161 166 168 155 151 142 131 137 136 132 134 130 124 118 112 103 99 93
250 248 243 245 247 252 265 262 226 218 221 212 220 217 208 208 211 221 223 211 200 192 180 180 170 174 163 152 147 141 138 135 131 132 133 133 128 125 118 110 104 93 87
289 282 254 245 247 253 226 258 220 216 212 213 223 230 223 217 222 228 227 214 208 196 178 182 178 175 171 152 142 143 142 138 138 139 138 132 126 131 120 105 97 91 84
293 289 271 266 256 251 225 225 219 211 200 205 223 235 230 230 231 227 226 219 206 192 178 186 180 172 164 167 154 139 136 142 147 153 169 153 140 144 135 118 100 91 81
297 274 269 268 268 250 213 215 222 205 207 214 218 228 235 240 238 235 224 214 202 174 172 171 169 168 169 172 164 154 142 157 172 177 182 199 185 161 156 141 154 47 52
338 300 257 255 262 202 202 209 202 201 211 221 227 232 240 235 238 234 220 202 190 182 177 177 175 171 172 176 181 169 148 160 163 172 186 194 184 162 170 184 211 271 287
342 349 267 223 194 189 198 192 200 197 204 215 232 239 232 228 227 224 219 200 186 186 182 180 180 178 183 177 185 181 174 183 173 176 190 191 188 189 197 204 222 234 248
15 42 132 178 196 192 205 188 193 201 218 231 233 236 234 224 213 215 219 199 185 181 182 181 181 183 185 187 189 184 191 201 191 185 180 183 191 197 208 219 237 236 241
50 92 133 157 164 181 190 195 201 212 234 234 228 222 225 216 216 219 206 195 191 182 179 183 182 189 186 194 189 193 182 170 196 190 188 190 196 197 213 227 233 230 241